• In Deutschland
  • Länderverzeichnis
  • Für 7 Tage
  • Wassertemperatur
  • Satellitenkarten
  • Wetterkarte
  • Widgets
  • user-avatar
    Anmelden

    Stündliche Wetter Lezhe

    Heute, 23 Juni, Freitag

    Zeit Temperatur Niederschläge Wind Luftdruck Luftfeuchtigkeit
    00:00 +17°C° 0 mm 0 m/S 739 mmHg 82%
    01:00 +17°C° 0 mm 0 m/S 738 mmHg 83%
    02:00 +17°C° 0 mm 0 m/S 738 mmHg 84%
    03:00 +16°C° 0 mm 0 m/S 738 mmHg 85%
    04:00 +16°C° 0 mm 0 m/S 738 mmHg 85%
    05:00 +19°C° 0 mm 0 m/S 739 mmHg 74%
    06:00 +23°C° 0 mm 0 m/S 739 mmHg 63%
    07:00 +26°C° 0 mm 0 m/S 739 mmHg 52%
    08:00 +30°C° 0 mm 1 m/S 739 mmHg 47%
    09:00 +31°C° 0 mm 1 m/S 739 mmHg 41%
    10:00 +34°C° 0 mm 2 m/S 739 mmHg 36%
    11:00 +34°C° 0 mm 2 m/S 739 mmHg 36%
    12:00 +35°C° 0 mm 3 m/S 739 mmHg 35%
    13:00 +35°C° 0 mm 3 m/S 738 mmHg 35%
    14:00 +34°C° 0,1 mm 3 m/S 738 mmHg 37%
    15:00 +34°C° 0,1 mm 3 m/S 738 mmHg 38%
    16:00 +33°C° 0,1 mm 3 m/S 738 mmHg 40%
    17:00 +29°C° 0 mm 2 m/S 738 mmHg 51%
    18:00 +26°C° 0 mm 1 m/S 738 mmHg 62%
    19:00 +24°C° 0 mm 1 m/S 738 mmHg 73%
    20:00 +22°C° 0 mm 1 m/S 738 mmHg 75%
    21:00 +19°C° 0 mm 0 m/S 738 mmHg 78%
    22:00 +18°C° 0 mm 0 m/S 738 mmHg 80%
    23:00 +18°C° 0 mm 0 m/S 738 mmHg 80%

    Morgen, 24 Juni, Samstag

    Zeit Temperatur Niederschläge Wind Luftdruck Luftfeuchtigkeit
    00:00 +17°C° 0 mm 0 m/S 738 mmHg 80%
    01:00 +17°C° 0 mm 0 m/S 738 mmHg 80%
    02:00 +17°C° 0 mm 0 m/S 738 mmHg 80%
    03:00 +17°C° 0 mm 0 m/S 738 mmHg 81%
    04:00 +16°C° 0 mm 0 m/S 738 mmHg 81%
    05:00 +20°C° 0 mm 0 m/S 738 mmHg 71%
    06:00 +23°C° 0 mm 0 m/S 738 mmHg 61%
    07:00 +26°C° 0 mm 0 m/S 739 mmHg 50%
    08:00 +30°C° 0,1 mm 1 m/S 739 mmHg 46%
    09:00 +32°C° 0,1 mm 1 m/S 739 mmHg 42%
    10:00 +34°C° 0,1 mm 1 m/S 739 mmHg 38%
    11:00 +35°C° 0,1 mm 2 m/S 739 mmHg 37%
    12:00 +36°C° 0,1 mm 2 m/S 738 mmHg 37%
    13:00 +36°C° 0,1 mm 3 m/S 738 mmHg 36%
    14:00 +36°C° 0,2 mm 3 m/S 738 mmHg 38%
    15:00 +35°C° 0,2 mm 2 m/S 737 mmHg 40%
    16:00 +35°C° 0,2 mm 2 m/S 737 mmHg 41%
    17:00 +31°C° 0,2 mm 2 m/S 737 mmHg 52%
    18:00 +28°C° 0,2 mm 1 m/S 737 mmHg 63%
    19:00 +26°C° 0,2 mm 1 m/S 737 mmHg 74%
    20:00 +25°C° 0,2 mm 1 m/S 737 mmHg 74%
    21:00 +24°C° 0,2 mm 1 m/S 737 mmHg 75%
    22:00 +23°C° 0,2 mm 1 m/S 738 mmHg 75%
    23:00 +23°C° 0,1 mm 1 m/S 737 mmHg 76%

    übermorgen, 25 Juni, Sonntag

    Zeit Temperatur Niederschläge Wind Luftdruck Luftfeuchtigkeit
    00:00 +23°C° 0,1 mm 1 m/S 737 mmHg 77%
    01:00 +22°C° 0,1 mm 1 m/S 737 mmHg 78%
    02:00 +22°C° 0,1 mm 1 m/S 737 mmHg 78%
    03:00 +22°C° 0,1 mm 1 m/S 737 mmHg 79%
    04:00 +22°C° 0,1 mm 1 m/S 737 mmHg 80%
    05:00 +24°C° 0 mm 1 m/S 737 mmHg 72%
    06:00 +25°C° 0 mm 0 m/S 737 mmHg 64%
    07:00 +27°C° 0 mm 0 m/S 737 mmHg 57%
    08:00 +31°C° 0,1 mm 1 m/S 737 mmHg 51%
    09:00 +33°C° 0,1 mm 1 m/S 737 mmHg 46%
    10:00 +35°C° 0,1 mm 1 m/S 737 mmHg 41%
    11:00 +36°C° 0,2 mm 2 m/S 736 mmHg 40%
    12:00 +36°C° 0,2 mm 2 m/S 736 mmHg 39%
    13:00 +36°C° 0,2 mm 3 m/S 736 mmHg 39%
    14:00 +36°C° 0,3 mm 3 m/S 736 mmHg 40%
    15:00 +35°C° 0,3 mm 2 m/S 735 mmHg 41%
    16:00 +34°C° 0,3 mm 2 m/S 735 mmHg 43%
    17:00 +31°C° 0,1 mm 2 m/S 735 mmHg 53%
    18:00 +28°C° 0,1 mm 1 m/S 735 mmHg 63%
    19:00 +23°C° 0,1 mm 0 m/S 735 mmHg 73%
    20:00 +24°C° 0 mm 1 m/S 735 mmHg 75%
    21:00 +23°C° 0 mm 1 m/S 735 mmHg 78%
    22:00 +21°C° 0 mm 1 m/S 735 mmHg 80%
    23:00 +21°C° 0 mm 1 m/S 735 mmHg 81%

    26 Juni, Montag

    Zeit Temperatur Niederschläge Wind Luftdruck Luftfeuchtigkeit
    00:00 +20°C° 0 mm 1 m/S 735 mmHg 82%
    01:00 +18°C° 0 mm 0 m/S 735 mmHg 82%
    02:00 +20°C° 0 mm 1 m/S 735 mmHg 82%
    03:00 +20°C° 0 mm 1 m/S 735 mmHg 81%
    04:00 +20°C° 0 mm 1 m/S 735 mmHg 80%
    05:00 +23°C° 0 mm 1 m/S 735 mmHg 71%
    06:00 +26°C° 0 mm 1 m/S 736 mmHg 61%
    07:00 +29°C° 0 mm 1 m/S 736 mmHg 52%
    08:00 +30°C° 0 mm 1 m/S 736 mmHg 46%
    09:00 +32°C° 0 mm 1 m/S 736 mmHg 40%
    10:00 +34°C° 0 mm 1 m/S 736 mmHg 35%
    11:00 +36°C° 0,1 mm 2 m/S 736 mmHg 34%
    12:00 +36°C° 0,1 mm 2 m/S 736 mmHg 34%
    13:00 +36°C° 0,1 mm 3 m/S 736 mmHg 34%
    14:00 +36°C° 0,2 mm 3 m/S 735 mmHg 37%
    15:00 +35°C° 0,2 mm 2 m/S 735 mmHg 40%
    16:00 +34°C° 0,2 mm 2 m/S 735 mmHg 43%
    17:00 +31°C° 0,2 mm 2 m/S 735 mmHg 53%
    18:00 +28°C° 0,2 mm 1 m/S 736 mmHg 63%
    19:00 +26°C° 0,2 mm 1 m/S 736 mmHg 73%
    20:00 +25°C° 0,2 mm 1 m/S 736 mmHg 75%
    21:00 +24°C° 0,2 mm 1 m/S 736 mmHg 76%
    22:00 +23°C° 0,2 mm 1 m/S 737 mmHg 78%
    23:00 +23°C° 0,1 mm 1 m/S 737 mmHg 79%

    27 Juni, Dienstag

    Zeit Temperatur Niederschläge Wind Luftdruck Luftfeuchtigkeit
    00:00 +23°C° 0,1 mm 1 m/S 737 mmHg 80%
    01:00 +22°C° 0,1 mm 1 m/S 737 mmHg 81%
    02:00 +22°C° 0 mm 1 m/S 737 mmHg 82%
    03:00 +22°C° 0 mm 1 m/S 736 mmHg 83%
    04:00 +22°C° 0 mm 1 m/S 736 mmHg 83%
    05:00 +24°C° 0 mm 1 m/S 737 mmHg 77%
    06:00 +26°C° 0 mm 1 m/S 737 mmHg 70%
    07:00 +28°C° 0 mm 1 m/S 737 mmHg 63%
    08:00 +30°C° 0 mm 1 m/S 737 mmHg 55%
    09:00 +33°C° 0 mm 1 m/S 737 mmHg 48%
    10:00 +35°C° 0 mm 1 m/S 737 mmHg 40%
    11:00 +35°C° 0,1 mm 1 m/S 737 mmHg 38%
    12:00 +36°C° 0,1 mm 2 m/S 737 mmHg 36%
    13:00 +37°C° 0,1 mm 3 m/S 737 mmHg 34%
    14:00 +36°C° 0,1 mm 3 m/S 736 mmHg 35%
    15:00 +35°C° 0,1 mm 2 m/S 736 mmHg 36%
    16:00 +35°C° 0,1 mm 2 m/S 736 mmHg 37%
    17:00 +31°C° 0 mm 2 m/S 736 mmHg 49%
    18:00 +28°C° 0 mm 1 m/S 736 mmHg 60%
    19:00 +25°C° 0 mm 1 m/S 736 mmHg 71%
    20:00 +24°C° 0 mm 1 m/S 736 mmHg 75%
    21:00 +23°C° 0 mm 1 m/S 736 mmHg 78%
    22:00 +21°C° 0 mm 1 m/S 737 mmHg 81%
    23:00 +21°C° 0 mm 1 m/S 736 mmHg 82%

    28 Juni, Mittwoch

    Zeit Temperatur Niederschläge Wind Luftdruck Luftfeuchtigkeit
    00:00 +21°C° 0 mm 1 m/S 736 mmHg 82%
    01:00 +20°C° 0 mm 1 m/S 736 mmHg 83%
    02:00 +20°C° 0 mm 1 m/S 736 mmHg 84%
    03:00 +20°C° 0 mm 1 m/S 736 mmHg 84%
    04:00 +17°C° 0 mm 0 m/S 736 mmHg 85%
    05:00 +23°C° 0 mm 1 m/S 736 mmHg 73%
    06:00 +26°C° 0 mm 1 m/S 736 mmHg 61%
    07:00 +30°C° 0 mm 1 m/S 737 mmHg 48%
    08:00 +31°C° 0 mm 1 m/S 736 mmHg 43%
    09:00 +33°C° 0 mm 1 m/S 736 mmHg 37%
    10:00 +35°C° 0 mm 1 m/S 736 mmHg 32%
    11:00 +36°C° 0 mm 2 m/S 736 mmHg 31%
    12:00 +37°C° 0 mm 2 m/S 736 mmHg 29%
    13:00 +37°C° 0 mm 3 m/S 735 mmHg 28%
    14:00 +36°C° 0 mm 2 m/S 735 mmHg 30%
    15:00 +36°C° 0 mm 2 m/S 735 mmHg 32%
    16:00 +35°C° 0 mm 2 m/S 735 mmHg 34%
    17:00 +31°C° 0 mm 2 m/S 734 mmHg 46%
    18:00 +28°C° 0 mm 1 m/S 734 mmHg 58%
    19:00 +25°C° 0 mm 1 m/S 734 mmHg 70%
    20:00 +24°C° 0 mm 1 m/S 734 mmHg 72%
    21:00 +23°C° 0 mm 1 m/S 734 mmHg 74%
    22:00 +21°C° 0 mm 1 m/S 735 mmHg 77%
    23:00 +21°C° 0 mm 1 m/S 734 mmHg 77%
    Mehr zeigen